When you browse on this site, cookies collect data to enhance your experience and personalize the content and advertising you see.
Visit our Privacy Policy to learn more. By continuing to use the site, you agree to this use of cookies and data.
  • In Germany
  • List of Countries
  • For 7 days
  • Water Temperature
  • Weather Map
  • Weather Widgets
  • user-avatar
    Login

    Hourly Weather Fier

    Today, 9 December, Monday

    Time Temperature Precipitation Wind Pressure Humidity
    00:00 +12°C° 0 mm 1 mps 762 mmHg 79%
    01:00 +12°C° 0 mm 2 mps 762 mmHg 78%
    02:00 +12°C° 0 mm 2 mps 761 mmHg 76%
    03:00 +10°C° 0 mm 2 mps 761 mmHg 75%
    04:00 +10°C° 0 mm 2 mps 760 mmHg 73%
    05:00 +10°C° 0 mm 2 mps 760 mmHg 72%
    06:00 +10°C° 0 mm 2 mps 760 mmHg 71%
    07:00 +10°C° 0 mm 3 mps 760 mmHg 71%
    08:00 +12°C° 0 mm 2 mps 760 mmHg 68%
    09:00 +14°C° 0 mm 2 mps 759 mmHg 64%
    10:00 +15°C° 0 mm 2 mps 759 mmHg 60%
    11:00 +16°C° 0 mm 2 mps 758 mmHg 58%
    12:00 +16°C° 0 mm 2 mps 758 mmHg 57%
    13:00 +17°C° 0 mm 2 mps 757 mmHg 55%
    14:00 +16°C° 0.1 mm 3 mps 757 mmHg 60%
    15:00 +16°C° 0.1 mm 3 mps 757 mmHg 65%
    16:00 +14°C° 0.1 mm 3 mps 756 mmHg 71%
    17:00 +13°C° 0 mm 3 mps 756 mmHg 71%
    18:00 +13°C° 0 mm 3 mps 756 mmHg 71%
    19:00 +13°C° 0 mm 3 mps 756 mmHg 71%
    20:00 +13°C° 0.1 mm 4 mps 756 mmHg 72%
    21:00 +13°C° 0.1 mm 4 mps 755 mmHg 72%
    22:00 +13°C° 0.1 mm 4 mps 755 mmHg 73%
    23:00 +12°C° 0.6 mm 4 mps 755 mmHg 76%

    Tomorrow, 10 December, Tuesday

    Time Temperature Precipitation Wind Pressure Humidity
    00:00 +12°C° 0.6 mm 4 mps 755 mmHg 79%
    01:00 +12°C° 0.6 mm 4 mps 754 mmHg 82%
    02:00 +11°C° 2.2 mm 3 mps 754 mmHg 85%
    03:00 +11°C° 2.2 mm 3 mps 753 mmHg 88%
    04:00 +12°C° 2.2 mm 2 mps 753 mmHg 90%
    05:00 +11°C° 1.7 mm 3 mps 753 mmHg 90%
    06:00 +11°C° 1.7 mm 4 mps 753 mmHg 90%
    07:00 +11°C° 1.7 mm 4 mps 754 mmHg 90%
    08:00 +11°C° 0.5 mm 4 mps 754 mmHg 87%
    09:00 +11°C° 0.5 mm 4 mps 754 mmHg 84%
    10:00 +12°C° 0.5 mm 4 mps 754 mmHg 81%
    11:00 +12°C° 0 mm 3 mps 753 mmHg 78%
    12:00 +12°C° 0 mm 3 mps 753 mmHg 75%
    13:00 +14°C° 0 mm 2 mps 753 mmHg 72%
    14:00 +14°C° 0 mm 2 mps 753 mmHg 73%
    15:00 +13°C° 0 mm 2 mps 753 mmHg 75%
    16:00 +13°C° 0 mm 2 mps 752 mmHg 77%
    17:00 +12°C° 0 mm 2 mps 753 mmHg 77%
    18:00 +12°C° 0 mm 2 mps 753 mmHg 78%
    19:00 +12°C° 0 mm 2 mps 753 mmHg 78%
    20:00 +12°C° 0 mm 2 mps 753 mmHg 78%
    21:00 +12°C° 0 mm 2 mps 753 mmHg 77%
    22:00 +10°C° 0 mm 2 mps 753 mmHg 77%
    23:00 +10°C° 0 mm 2 mps 753 mmHg 77%

    Day after tomorrow, 11 December, Wednesday

    Time Temperature Precipitation Wind Pressure Humidity
    00:00 +10°C° 0 mm 2 mps 753 mmHg 77%
    01:00 +12°C° 0 mm 2 mps 753 mmHg 77%
    02:00 +10°C° 0 mm 2 mps 753 mmHg 78%
    03:00 +10°C° 0 mm 3 mps 753 mmHg 79%
    04:00 +10°C° 0 mm 3 mps 753 mmHg 80%
    05:00 +10°C° 0 mm 3 mps 753 mmHg 79%
    06:00 +10°C° 0 mm 4 mps 753 mmHg 79%
    07:00 +10°C° 0 mm 4 mps 754 mmHg 79%
    08:00 +11°C° 0 mm 4 mps 754 mmHg 74%
    09:00 +12°C° 0 mm 4 mps 754 mmHg 70%
    10:00 +13°C° 0 mm 4 mps 755 mmHg 66%
    11:00 +13°C° 0 mm 4 mps 755 mmHg 62%
    12:00 +14°C° 0 mm 3 mps 754 mmHg 59%
    13:00 +16°C° 0 mm 3 mps 754 mmHg 55%
    14:00 +14°C° 0 mm 4 mps 754 mmHg 59%
    15:00 +13°C° 0 mm 4 mps 754 mmHg 63%
    16:00 +12°C° 0 mm 4 mps 754 mmHg 66%
    17:00 +11°C° 0 mm 4 mps 754 mmHg 68%
    18:00 +11°C° 0 mm 3 mps 755 mmHg 70%
    19:00 +10°C° 0 mm 3 mps 755 mmHg 72%
    20:00 +10°C° 0 mm 3 mps 755 mmHg 72%
    21:00 +9°C° 0 mm 2 mps 755 mmHg 73%
    22:00 +9°C° 0 mm 2 mps 755 mmHg 73%
    23:00 +9°C° 0 mm 2 mps 755 mmHg 73%

    12 December, Thursday

    Time Temperature Precipitation Wind Pressure Humidity
    00:00 +9°C° 0 mm 2 mps 755 mmHg 74%
    01:00 +8°C° 0 mm 2 mps 755 mmHg 74%
    02:00 +8°C° 0 mm 2 mps 755 mmHg 74%
    03:00 +8°C° 0 mm 2 mps 754 mmHg 74%
    04:00 +8°C° 0 mm 2 mps 754 mmHg 74%
    05:00 +8°C° 0 mm 2 mps 754 mmHg 74%
    06:00 +7°C° 0 mm 2 mps 754 mmHg 74%
    07:00 +8°C° 0 mm 1 mps 755 mmHg 74%
    08:00 +10°C° 0 mm 1 mps 755 mmHg 70%
    09:00 +11°C° 0 mm 1 mps 755 mmHg 67%
    10:00 +12°C° 0 mm 1 mps 755 mmHg 63%
    11:00 +13°C° 0 mm 1 mps 754 mmHg 62%
    12:00 +13°C° 0 mm 1 mps 754 mmHg 61%
    13:00 +14°C° 0 mm 1 mps 754 mmHg 60%
    14:00 +13°C° 0 mm 1 mps 754 mmHg 63%
    15:00 +13°C° 0 mm 1 mps 754 mmHg 67%
    16:00 +11°C° 0 mm 0 mps 754 mmHg 70%
    17:00 +11°C° 0 mm 0 mps 754 mmHg 71%
    18:00 +11°C° 0 mm 1 mps 754 mmHg 72%
    19:00 +11°C° 0 mm 1 mps 754 mmHg 72%
    20:00 +11°C° 0 mm 1 mps 754 mmHg 73%
    21:00 +10°C° 0 mm 1 mps 754 mmHg 74%
    22:00 +10°C° 0 mm 1 mps 754 mmHg 75%
    23:00 +10°C° 0 mm 1 mps 754 mmHg 75%

    13 December, Friday

    Time Temperature Precipitation Wind Pressure Humidity
    00:00 +10°C° 0 mm 1 mps 754 mmHg 76%
    01:00 +10°C° 0 mm 1 mps 754 mmHg 76%
    02:00 +10°C° 0 mm 1 mps 754 mmHg 77%
    03:00 +9°C° 0 mm 2 mps 754 mmHg 77%
    04:00 +9°C° 0 mm 2 mps 754 mmHg 78%
    05:00 +9°C° 0.2 mm 2 mps 754 mmHg 78%
    06:00 +9°C° 0.2 mm 2 mps 754 mmHg 79%
    07:00 +9°C° 0.2 mm 2 mps 754 mmHg 79%
    08:00 +9°C° 0.2 mm 2 mps 754 mmHg 78%
    09:00 +10°C° 0.2 mm 2 mps 754 mmHg 77%
    10:00 +11°C° 0.2 mm 3 mps 754 mmHg 76%
    11:00 +12°C° 0.1 mm 3 mps 754 mmHg 72%
    12:00 +13°C° 0.1 mm 3 mps 753 mmHg 69%
    13:00 +13°C° 0.1 mm 3 mps 753 mmHg 65%
    14:00 +13°C° 0.1 mm 3 mps 753 mmHg 69%
    15:00 +12°C° 0.1 mm 3 mps 753 mmHg 72%
    16:00 +11°C° 0.1 mm 3 mps 752 mmHg 75%
    17:00 +11°C° 0 mm 3 mps 752 mmHg 76%
    18:00 +11°C° 0 mm 4 mps 752 mmHg 77%
    19:00 +10°C° 0 mm 5 mps 752 mmHg 77%
    20:00 +10°C° 0.2 mm 6 mps 752 mmHg 77%
    21:00 +10°C° 0.2 mm 7 mps 751 mmHg 77%
    22:00 +10°C° 0.2 mm 8 mps 750 mmHg 76%
    23:00 +10°C° 2.5 mm 8 mps 749 mmHg 80%

    14 December, Saturday

    Time Temperature Precipitation Wind Pressure Humidity
    00:00 +10°C° 2.5 mm 8 mps 748 mmHg 84%
    01:00 +10°C° 2.5 mm 8 mps 747 mmHg 88%
    02:00 +10°C° 2.3 mm 7 mps 747 mmHg 85%
    03:00 +11°C° 2.3 mm 7 mps 747 mmHg 82%
    04:00 +11°C° 2.3 mm 7 mps 747 mmHg 78%
    05:00 +11°C° 0.7 mm 7 mps 747 mmHg 79%
    06:00 +11°C° 0.7 mm 6 mps 748 mmHg 80%
    07:00 +10°C° 0.7 mm 6 mps 749 mmHg 81%
    08:00 +11°C° 0.3 mm 7 mps 750 mmHg 76%
    09:00 +12°C° 0.3 mm 8 mps 751 mmHg 71%
    10:00 +13°C° 0.3 mm 8 mps 751 mmHg 66%
    11:00 +14°C° 0.1 mm 7 mps 752 mmHg 63%
    12:00 +15°C° 0.1 mm 6 mps 752 mmHg 60%
    13:00 +15°C° 0.1 mm 4 mps 752 mmHg 57%
    14:00 +14°C° 0 mm 3 mps 753 mmHg 59%
    15:00 +15°C° 0 mm 2 mps 753 mmHg 62%
    16:00 +14°C° 0 mm 1 mps 754 mmHg 65%
    17:00 +14°C° 0 mm 1 mps 755 mmHg 66%
    18:00 +13°C° 0 mm 1 mps 756 mmHg 67%
    19:00 +13°C° 0 mm 1 mps 756 mmHg 68%
    20:00 +13°C° 0 mm 2 mps 757 mmHg 67%
    21:00 +12°C° 0 mm 2 mps 758 mmHg 66%
    22:00 +12°C° 0 mm 2 mps 758 mmHg 65%
    23:00 +12°C° 0 mm 2 mps 759 mmHg 65%
    Show more